Montpellier

Airport
ICAO code: 
LFMT
Summary
ICAO Region: 
EUR
Territory: 
Location: 
Maugio, Languedoc-Roussillon,
Coordinates: 
Aerial View: 
43° 34' 47.986" N, 3° 58' 1.746" E
Airport BS: 
Bird Strike
Airport WX: 
Low Level Turbulence
Metar
Observation
LFMT 190200Z AUTO 34003KT 9999 OVC039 04/01 Q1032 NOSIG
Station
Montpellier
Date/Time
2022-01-19 02:00:00
Wind direction
340°
Wind speed
03 kts
Lowest cloud amount
overcast
Temperature
4°C
Dew point
1°C
Humidity
80%
QNH
1032 hPa
Weather condition
n/a

Description

Montpellier - Méditerranée Airport, also known as Fréjorgues Airport, is an airport in southern France. It is located 7 km east-southeast of Montpellier in Mauguio.

Climatology

Dry-summer subtropical ”Mediterranean" climate (Köppen climate classification Csa) - characterized by hot, dry summers and mild winters. During the summer, subtropical high pressure cells dominate, making rainfall unlikely except for the occasional thunderstorm. In the winter, periodic storms bring rain (snow at higher elevations).

Runways

Designator Length Width Surface Rops
13R/31L 1100 30 ASP Yes/Yes
13L/31R 2600 50 ASP Yes/Yes
Airport map: 
Aerial View: 

Accidents and Serious Incidents at or in the vicinity of LFMT

SKYbrary Partners:

Safety knowledge contributed by: